SWR188 LSZH-ZSPD

Flight info

Callsign SWR188
Flight time N/A
Altitude 33000
Route DEGES Z2 UMVEG DCT DIMLO DCT INVED DCT SOKRU DCT DINRO DCT UDROS DCT CRM/N0480F350 UM11 REBLO M11 MATAL T916 LEYLA N161 GASBI/K0882F350 N161 RITET/K0863F370 N161 GOMAL/K0865F371 N161 BURID/K0865F370 N161 SARIN/K0880S1070 A368 FKG W188 LIKMI W270 DKO W64 NUTLO B208 CGO W129 KAMDA W128 DUDBI/K0870S1190 W128 FYG B208 HFE R343 SASAN SAS81A
Aircraft A343/H-SDE2E3FGHIJ4J5LM1OP2RVWXYZ/LB1D1

Departure

Time 2026-05-05 22:41
Airport Zürich Airport (LSZH)

Arrival

Time N/A
Airport Shanghai Pudong International Airport (ZSPD)
Time Latitude Longitude Altitude Speed Heading
2026-05-05 22:01 47.46199 8.55189 1398 ft 0 kts 185°
2026-05-05 22:30 47.46213 8.55191 1408 ft 4 kts 186°
2026-05-05 22:30 47.46240 8.55196 1408 ft 4 kts 189°
2026-05-05 22:30 47.46263 8.55203 1408 ft 4 kts 200°
2026-05-05 22:30 47.46280 8.55221 1407 ft 4 kts 266°
2026-05-05 22:31 47.46275 8.55258 1408 ft 4 kts 287°
2026-05-05 22:31 47.46271 8.55276 1406 ft 4 kts 275°
2026-05-05 22:33 47.46273 8.55259 1408 ft 3 kts 276°
2026-05-05 22:33 47.46276 8.55201 1407 ft 8 kts 276°
2026-05-05 22:33 47.46283 8.55101 1403 ft 12 kts 276°
2026-05-05 22:33 47.46293 8.54966 1401 ft 15 kts 276°
2026-05-05 22:34 47.46294 8.54813 1401 ft 14 kts 244°
2026-05-05 22:34 47.46217 8.54806 1401 ft 11 kts 159°
2026-05-05 22:34 47.46151 8.54852 1402 ft 10 kts 154°
2026-05-05 22:34 47.46080 8.54901 1402 ft 12 kts 155°
2026-05-05 22:35 47.46004 8.54953 1402 ft 12 kts 155°
2026-05-05 22:35 47.45928 8.55004 1402 ft 12 kts 155°
2026-05-05 22:35 47.45852 8.55058 1404 ft 13 kts 154°
2026-05-05 22:35 47.45765 8.55118 1406 ft 14 kts 155°
2026-05-05 22:36 47.45675 8.55180 1408 ft 14 kts 155°
2026-05-05 22:36 47.45585 8.55243 1410 ft 14 kts 154°
2026-05-05 22:36 47.45496 8.55306 1412 ft 15 kts 154°
2026-05-05 22:36 47.45404 8.55368 1410 ft 15 kts 155°
2026-05-05 22:37 47.45310 8.55431 1413 ft 15 kts 155°
2026-05-05 22:37 47.45212 8.55500 1414 ft 16 kts 154°
2026-05-05 22:37 47.45109 8.55572 1414 ft 17 kts 155°
2026-05-05 22:37 47.45004 8.55643 1410 ft 13 kts 155°
2026-05-05 22:38 47.44955 8.55650 1405 ft 0 kts 214°
2026-05-05 22:38 47.44954 8.55646 1400 ft 1 kts 230°
2026-05-05 22:38 47.44952 8.55631 1400 ft 3 kts 248°
2026-05-05 22:38 47.44937 8.55581 1409 ft 7 kts 246°
2026-05-05 22:39 47.44911 8.55497 1407 ft 10 kts 246°
2026-05-05 22:39 47.44917 8.55421 1409 ft 5 kts 313°
2026-05-05 22:39 47.44939 8.55405 1403 ft 2 kts 336°
2026-05-05 22:39 47.44982 8.55377 1409 ft 23 kts 336°
2026-05-05 22:40 47.45277 8.55174 1406 ft 70 kts 335°
2026-05-05 22:40 47.45844 8.54781 1403 ft 111 kts 335°
2026-05-05 22:40 47.46657 8.54222 1381 ft 146 kts 335°
2026-05-05 22:40 47.47657 8.53531 1509 ft 162 kts 335°
2026-05-05 22:41 47.48616 8.52861 2066 ft 148 kts 333°
2026-05-05 22:41 47.49533 8.52193 2407 ft 147 kts 330°
2026-05-05 22:41 47.50511 8.51600 2625 ft 156 kts 340°
2026-05-05 22:41 47.51626 8.51629 2807 ft 172 kts 21°
2026-05-05 22:42 47.52546 8.52863 2960 ft 188 kts 59°
2026-05-05 22:42 47.53097 8.54684 3171 ft 201 kts 70°
2026-05-05 22:42 47.53602 8.56691 3379 ft 216 kts 69°
2026-05-05 22:42 47.54154 8.58814 3596 ft 230 kts 68°
2026-05-05 22:43 47.54768 8.61093 3838 ft 248 kts 68°
2026-05-05 22:43 47.55442 8.63541 4083 ft 266 kts 68°
2026-05-05 22:43 47.56165 8.66148 4489 ft 277 kts 68°
2026-05-05 22:43 47.56778 8.68860 5025 ft 281 kts 84°
2026-05-05 22:44 47.56519 8.71675 5588 ft 275 kts 121°
2026-05-05 22:44 47.55327 8.73760 6190 ft 263 kts 151°
2026-05-05 22:44 47.53799 8.75239 6828 ft 263 kts 154°
2026-05-05 22:44 47.52222 8.76719 7237 ft 274 kts 153°
2026-05-05 22:45 47.50612 8.78302 7771 ft 280 kts 151°
2026-05-05 22:45 47.48998 8.79940 8347 ft 283 kts 149°
2026-05-05 22:45 47.47457 8.81792 8901 ft 290 kts 135°
2026-05-05 22:45 47.46425 8.84382 9503 ft 299 kts 111°
2026-05-05 22:46 47.46067 8.86326 9904 ft 301 kts 106°
2026-05-05 22:46 47.45626 8.89401 10250 ft 311 kts 104°
2026-05-05 22:46 47.45186 8.92597 10481 ft 324 kts 104°
2026-05-05 22:46 47.44727 8.95917 10702 ft 336 kts 104°
2026-05-05 22:47 47.44243 8.99365 10940 ft 349 kts 104°
2026-05-05 22:47 47.43738 9.02927 11158 ft 360 kts 104°
2026-05-05 22:47 47.43211 9.06612 11375 ft 372 kts 104°
2026-05-05 22:47 47.42665 9.10403 11661 ft 381 kts 104°
2026-05-05 22:48 47.42109 9.14256 12060 ft 386 kts 104°
2026-05-05 22:48 47.41587 9.18176 12486 ft 392 kts 99°
2026-05-05 22:48 47.41567 9.22222 13012 ft 397 kts 85°
2026-05-05 22:48 47.41965 9.26212 13523 ft 400 kts 80°
2026-05-05 22:49 47.42554 9.30260 13977 ft 404 kts 77°
2026-05-05 22:49 47.43223 9.34312 14345 ft 410 kts 77°
2026-05-05 22:49 47.43916 9.38420 14808 ft 412 kts 77°
2026-05-05 22:49 47.44596 9.42540 15293 ft 414 kts 77°
2026-05-05 22:50 47.45258 9.46684 15767 ft 416 kts 78°
2026-05-05 22:50 47.45904 9.50862 16232 ft 418 kts 79°
2026-05-05 22:50 47.46540 9.55071 16674 ft 421 kts 79°
2026-05-05 22:50 47.47009 9.59338 17118 ft 421 kts 88°
2026-05-05 22:51 47.47047 9.63669 17567 ft 422 kts 93°
2026-05-05 22:51 47.46922 9.68029 17992 ft 425 kts 96°
2026-05-05 22:51 47.46707 9.72391 18393 ft 427 kts 97°
2026-05-05 22:51 47.46447 9.76785 18759 ft 430 kts 97°
2026-05-05 22:52 47.46174 9.81193 19123 ft 433 kts 98°
2026-05-05 22:52 47.45899 9.85662 19473 ft 437 kts 98°
2026-05-05 22:52 47.45634 9.90086 19829 ft 439 kts 98°
2026-05-05 22:52 47.45370 9.94598 20204 ft 442 kts 98°
2026-05-05 22:53 47.45108 9.99140 20566 ft 445 kts 98°
2026-05-05 22:53 47.44845 10.03716 20917 ft 448 kts 98°
2026-05-05 22:53 47.44579 10.08322 21168 ft 454 kts 98°
2026-05-05 22:53 47.44309 10.12994 21524 ft 457 kts 98°
2026-05-05 22:54 47.43976 10.17655 21915 ft 456 kts 103°
2026-05-05 22:54 47.43459 10.22284 22259 ft 458 kts 104°
2026-05-05 22:54 47.42882 10.26915 22597 ft 460 kts 105°
2026-05-05 22:54 47.42264 10.31568 22945 ft 462 kts 105°
2026-05-05 22:55 47.41629 10.36224 23277 ft 464 kts 106°
2026-05-05 22:55 47.40982 10.40910 23555 ft 467 kts 106°
2026-05-05 22:55 47.40333 10.45618 23829 ft 468 kts 106°
2026-05-05 22:55 47.39684 10.50327 24220 ft 467 kts 106°
2026-05-05 22:56 47.39035 10.55032 24463 ft 470 kts 106°
2026-05-05 22:56 47.38379 10.59769 24706 ft 472 kts 106°
2026-05-05 22:56 47.37718 10.64536 24972 ft 475 kts 106°
2026-05-05 22:56 47.37064 10.69251 25231 ft 477 kts 106°
2026-05-05 22:57 47.36395 10.74051 25520 ft 477 kts 106°
2026-05-05 22:57 47.35726 10.78844 25764 ft 479 kts 106°
2026-05-05 22:57 47.35048 10.83679 25988 ft 482 kts 106°
2026-05-05 22:57 47.34366 10.88528 26186 ft 483 kts 106°
2026-05-05 22:58 47.33682 10.93377 26456 ft 484 kts 106°
2026-05-05 22:58 47.32990 10.98247 26710 ft 486 kts 106°
2026-05-05 22:58 47.32295 11.03131 26944 ft 488 kts 106°
2026-05-05 22:58 47.31596 11.08036 27185 ft 490 kts 106°
2026-05-05 22:59 47.30894 11.12952 27431 ft 491 kts 106°
2026-05-05 22:59 47.30187 11.17891 27677 ft 493 kts 106°
2026-05-05 22:59 47.29473 11.22858 27905 ft 495 kts 106°
2026-05-05 22:59 47.28756 11.27825 28028 ft 498 kts 106°
2026-05-05 23:00 47.27305 11.37888 28306 ft 504 kts 106°
2026-05-05 23:00 47.26570 11.42932 28546 ft 504 kts 107°
2026-05-05 23:00 47.25829 11.47984 28755 ft 505 kts 107°
2026-05-05 23:01 47.25090 11.53034 29072 ft 504 kts 105°
2026-05-05 23:01 47.24456 11.58110 29359 ft 505 kts 103°
2026-05-05 23:01 47.23916 11.63217 29634 ft 505 kts 102°
2026-05-05 23:01 47.23414 11.68280 29739 ft 508 kts 102°
2026-05-05 23:02 47.22360 11.78623 30052 ft 511 kts 103°
2026-05-05 23:02 47.21811 11.83785 30301 ft 510 kts 103°
2026-05-05 23:02 47.21249 11.88955 30505 ft 512 kts 103°
2026-05-05 23:03 47.20693 11.94123 30729 ft 512 kts 103°
2026-05-05 23:03 47.20176 11.99319 30870 ft 514 kts 102°
2026-05-05 23:03 47.19682 12.04518 31083 ft 514 kts 102°
2026-05-05 23:03 47.19192 12.09721 31301 ft 513 kts 102°
2026-05-05 23:04 47.18697 12.14924 31484 ft 513 kts 102°
2026-05-05 23:04 47.18194 12.20127 31565 ft 515 kts 102°
2026-05-05 23:04 47.17685 12.25342 31764 ft 514 kts 103°
2026-05-05 23:04 47.17171 12.30531 31972 ft 514 kts 103°
2026-05-05 23:05 47.16657 12.35673 32127 ft 515 kts 103°
2026-05-05 23:05 47.16133 12.40870 32214 ft 514 kts 103°
2026-05-05 23:05 47.15071 12.51278 32413 ft 516 kts 102°
2026-05-05 23:06 47.14535 12.56553 32596 ft 516 kts 102°
2026-05-05 23:06 47.14010 12.61710 32731 ft 516 kts 102°
2026-05-05 23:06 47.13477 12.66930 32900 ft 516 kts 103°
2026-05-05 23:06 47.12944 12.72128 32936 ft 512 kts 103°
2026-05-05 23:07 47.11885 12.82377 32937 ft 505 kts 103°
2026-05-05 23:07 47.10852 12.92213 32933 ft 506 kts 103°
2026-05-05 23:08 47.09743 13.02684 32940 ft 506 kts 103°
2026-05-05 23:08 47.08648 13.12944 32943 ft 505 kts 103°
2026-05-05 23:09 47.07558 13.23082 32930 ft 506 kts 103°
2026-05-05 23:09 47.06450 13.33272 32938 ft 505 kts 103°
2026-05-05 23:10 47.05334 13.43458 32937 ft 505 kts 103°
2026-05-05 23:10 47.04206 13.53644 32945 ft 505 kts 103°
2026-05-05 23:11 47.03082 13.63752 32950 ft 505 kts 103°
2026-05-05 23:11 47.01941 13.73926 32956 ft 504 kts 102°
2026-05-05 23:12 47.00796 13.84040 32936 ft 502 kts 103°
2026-05-05 23:12 46.99641 13.94155 32942 ft 503 kts 103°
2026-05-05 23:13 46.98485 14.04193 32949 ft 503 kts 103°
2026-05-05 23:13 46.97314 14.14297 32938 ft 502 kts 103°
2026-05-05 23:14 46.96137 14.24361 32932 ft 502 kts 103°
2026-05-05 23:14 46.94954 14.34429 32940 ft 502 kts 103°
2026-05-05 23:15 46.93754 14.44514 32935 ft 503 kts 103°
2026-05-05 23:15 46.92554 14.54532 32934 ft 503 kts 103°
2026-05-05 23:16 46.91336 14.64620 32932 ft 503 kts 103°
2026-05-05 23:16 46.90108 14.74717 32921 ft 503 kts 103°
2026-05-05 23:17 46.88875 14.84793 32925 ft 504 kts 103°
2026-05-05 23:17 46.87628 14.94889 32915 ft 505 kts 102°
2026-05-05 23:18 46.86372 15.04990 32893 ft 504 kts 103°
2026-05-05 23:18 46.85107 15.15084 32892 ft 504 kts 103°
2026-05-05 23:19 46.83841 15.25112 32869 ft 505 kts 102°
2026-05-05 23:19 46.82568 15.35122 32886 ft 497 kts 102°
2026-05-05 23:20 46.81302 15.45013 32882 ft 495 kts 102°
2026-05-05 23:20 46.80027 15.54890 32883 ft 495 kts 102°
2026-05-05 23:21 46.78741 15.64775 32878 ft 495 kts 102°
2026-05-05 23:21 46.77458 15.74580 32895 ft 494 kts 102°
2026-05-05 23:22 46.76161 15.84420 32899 ft 493 kts 102°
2026-05-05 23:22 46.74857 15.94252 32894 ft 494 kts 102°
2026-05-05 23:23 46.73542 16.04086 32884 ft 494 kts 102°
2026-05-05 23:23 46.72227 16.13857 32893 ft 494 kts 102°
2026-05-05 23:24 46.70895 16.23689 32891 ft 494 kts 103°
2026-05-05 23:24 46.69555 16.33513 32892 ft 494 kts 103°
2026-05-05 23:25 46.68207 16.43335 32890 ft 494 kts 102°
2026-05-05 23:25 46.67006 16.53240 32894 ft 499 kts 100°
2026-05-05 23:26 46.65915 16.63184 32898 ft 500 kts 100°
2026-05-05 23:26 46.64792 16.73181 32900 ft 500 kts 100°
2026-05-05 23:27 46.63634 16.83160 32894 ft 500 kts 100°
2026-05-05 23:27 46.62463 16.93091 32908 ft 496 kts 101°
2026-05-05 23:28 46.61287 17.02980 32907 ft 495 kts 101°
2026-05-05 23:28 46.60111 17.12796 32909 ft 495 kts 101°
2026-05-05 23:29 46.58920 17.22667 32904 ft 495 kts 101°
2026-05-05 23:29 46.57726 17.32496 32907 ft 492 kts 101°
2026-05-05 23:30 46.56731 17.40630 32926 ft 491 kts 101°
2026-05-05 23:30 46.55323 17.52049 32919 ft 491 kts 101°
2026-05-05 23:31 46.54108 17.61836 32919 ft 491 kts 101°
2026-05-05 23:31 46.52890 17.71568 32942 ft 489 kts 101°
2026-05-05 23:32 46.51668 17.81270 32936 ft 488 kts 101°
2026-05-05 23:32 46.50444 17.90912 32939 ft 488 kts 101°
2026-05-05 23:33 46.49407 17.99027 32929 ft 488 kts 101°
2026-05-05 23:33 46.47958 18.10282 32931 ft 487 kts 101°
2026-05-05 23:34 46.46916 18.18326 32933 ft 487 kts 101°
2026-05-05 23:34 46.45657 18.27980 32948 ft 487 kts 101°
2026-05-05 23:35 46.44390 18.37636 32930 ft 487 kts 101°
2026-05-05 23:35 46.43115 18.47280 32944 ft 487 kts 101°
2026-05-05 23:36 46.41830 18.56929 32950 ft 487 kts 101°
2026-05-05 23:36 46.40548 18.66500 32939 ft 487 kts 101°
2026-05-05 23:37 46.39250 18.76125 32952 ft 487 kts 101°
2026-05-05 23:37 46.37943 18.85744 32942 ft 486 kts 101°
2026-05-05 23:38 46.36627 18.95376 32953 ft 486 kts 101°
2026-05-05 23:38 46.35312 19.04932 32956 ft 486 kts 101°
2026-05-05 23:39 46.33981 19.14543 32955 ft 486 kts 101°
2026-05-05 23:39 46.32645 19.24124 32955 ft 484 kts 101°
2026-05-05 23:40 46.31315 19.33604 32954 ft 483 kts 101°
2026-05-05 23:40 46.29970 19.43129 32957 ft 483 kts 102°
2026-05-05 23:41 46.28618 19.52643 32956 ft 483 kts 102°
2026-05-05 23:41 46.27257 19.62162 32960 ft 482 kts 102°
2026-05-05 23:42 46.25895 19.71624 32961 ft 481 kts 102°
2026-05-05 23:42 46.24525 19.81088 32962 ft 481 kts 102°
2026-05-05 23:43 46.23146 19.90548 32953 ft 481 kts 102°
2026-05-05 23:43 46.21771 19.99932 32963 ft 481 kts 102°
2026-05-05 23:44 46.20377 20.09377 32963 ft 481 kts 102°
2026-05-05 23:44 46.18977 20.18813 32948 ft 481 kts 102°
2026-05-05 23:45 46.17567 20.28263 32961 ft 481 kts 102°
2026-05-05 23:45 46.16150 20.37698 32949 ft 479 kts 102°
2026-05-05 23:46 46.14572 20.47000 32964 ft 477 kts 107°
2026-05-05 23:46 46.12558 20.56116 32967 ft 477 kts 108°
2026-05-05 23:47 46.10523 20.65159 32959 ft 477 kts 108°
2026-05-05 23:47 46.08536 20.74273 32972 ft 476 kts 107°
2026-05-05 23:48 46.06587 20.83362 32961 ft 474 kts 107°
2026-05-05 23:48 46.04637 20.92444 32971 ft 474 kts 107°
2026-05-05 23:49 46.02681 21.01505 32957 ft 474 kts 107°
2026-05-05 23:49 46.00717 21.10556 32968 ft 474 kts 107°
2026-05-05 23:50 45.98739 21.19624 32964 ft 474 kts 107°
2026-05-05 23:50 45.96768 21.28622 32987 ft 475 kts 107°
2026-05-05 23:51 45.94777 21.37672 32985 ft 474 kts 107°
2026-05-05 23:51 45.92779 21.46717 32998 ft 475 kts 107°
2026-05-05 23:52 45.90765 21.55796 32983 ft 476 kts 107°
2026-05-05 23:52 45.88761 21.64793 32985 ft 476 kts 107°
2026-05-05 23:53 45.86735 21.73851 32988 ft 476 kts 107°
2026-05-05 23:53 45.84699 21.82912 32986 ft 477 kts 107°
2026-05-05 23:54 45.82652 21.91984 32987 ft 478 kts 107°
2026-05-05 23:54 45.80595 22.01058 32991 ft 478 kts 107°
2026-05-05 23:55 45.78533 22.10121 32989 ft 478 kts 107°
2026-05-05 23:55 45.76475 22.19123 32983 ft 479 kts 107°
2026-05-05 23:56 45.74392 22.28203 32994 ft 479 kts 107°
2026-05-05 23:56 45.72303 22.37267 32997 ft 479 kts 107°
2026-05-05 23:57 45.70206 22.46328 33003 ft 479 kts 107°
2026-05-05 23:57 45.68103 22.55380 33010 ft 479 kts 107°
2026-05-05 23:58 45.66006 22.64363 33009 ft 479 kts 107°
2026-05-05 23:58 45.63890 22.73399 33009 ft 479 kts 108°
2026-05-05 23:59 45.61760 22.82455 33019 ft 479 kts 108°
2026-05-05 23:59 45.59630 22.91471 33020 ft 479 kts 108°
2026-05-06 00:00 45.57503 23.00436 33029 ft 479 kts 108°
2026-05-06 00:00 45.55356 23.09450 33037 ft 479 kts 108°
2026-05-06 00:01 45.53202 23.18459 33036 ft 479 kts 108°
2026-05-06 00:01 45.51043 23.27454 33042 ft 479 kts 108°
2026-05-06 00:02 45.48879 23.36428 33049 ft 478 kts 108°
2026-05-06 00:02 45.46711 23.45384 33042 ft 478 kts 108°
2026-05-06 00:03 45.44547 23.54289 33048 ft 479 kts 108°
2026-05-06 00:03 45.42361 23.63247 33047 ft 479 kts 108°
2026-05-06 00:04 45.40172 23.72190 33052 ft 479 kts 108°
2026-05-06 00:04 45.37969 23.81148 33048 ft 479 kts 108°
2026-05-06 00:05 45.34669 23.94499 33048 ft 479 kts 108°
2026-05-06 00:06 45.32447 24.03447 33044 ft 479 kts 108°
2026-05-06 00:06 45.30223 24.12370 33045 ft 479 kts 108°
2026-05-06 00:07 45.27993 24.21283 33044 ft 479 kts 108°
2026-05-06 00:07 45.25768 24.30136 33041 ft 479 kts 108°
2026-05-06 00:08 45.23521 24.39046 33047 ft 479 kts 108°
2026-05-06 00:08 45.21267 24.47947 33045 ft 479 kts 108°
2026-05-06 00:09 45.19006 24.56840 33047 ft 479 kts 108°
2026-05-06 00:09 45.16740 24.65720 33044 ft 478 kts 108°
2026-05-06 00:10 45.14485 24.74528 33048 ft 478 kts 108°
2026-05-06 00:10 45.12208 24.83379 33044 ft 478 kts 108°
2026-05-06 00:11 45.09922 24.92236 33045 ft 478 kts 108°
2026-05-06 00:11 45.07632 25.01075 33042 ft 478 kts 107°
2026-05-06 00:12 45.05339 25.09896 33041 ft 478 kts 107°
2026-05-06 00:12 45.03038 25.18711 33035 ft 478 kts 108°
2026-05-06 00:13 45.00725 25.27539 33047 ft 478 kts 108°
2026-05-06 00:13 44.98147 25.36207 33031 ft 480 kts 112°
2026-05-06 00:14 44.95234 25.44690 33028 ft 480 kts 114°
2026-05-06 00:14 44.92263 25.53131 33031 ft 480 kts 114°
2026-05-06 00:15 44.89297 25.61526 33021 ft 480 kts 114°
2026-05-06 00:15 44.86321 25.69944 33020 ft 480 kts 114°
2026-05-06 00:16 44.83340 25.78366 33018 ft 480 kts 114°
2026-05-06 00:16 44.80349 25.86792 33021 ft 480 kts 114°
2026-05-06 00:17 44.77358 25.95189 33020 ft 479 kts 114°
2026-05-06 00:17 44.74372 26.03547 33022 ft 477 kts 114°
2026-05-06 00:18 44.71401 26.11840 33018 ft 479 kts 114°
2026-05-06 00:18 44.68387 26.20227 33018 ft 480 kts 114°
2026-05-06 00:19 44.65372 26.28586 33017 ft 479 kts 114°
2026-05-06 00:19 44.62357 26.36922 33015 ft 478 kts 114°
2026-05-06 00:20 44.59326 26.45279 33020 ft 484 kts 114°
2026-05-06 00:20 44.56244 26.53755 33032 ft 491 kts 114°